Wind_Speed
5 4 4 4 4 3 3 4 5 7 8 9 9 12 13 12 11 10 10 10 10 11 10 10 9 9 8 8 8 7 6 6 5 5 5 5 5 4 4 4 3 3 3 3 2 2 3 3 3
6 6 5 4 4 2 3 4 4 6 7 9 10 11 12 11 10 10 10 10 10 10 10 10 9 9 9 8 8 8 7 6 5 5 5 5 5 5 4 3 2 2 1 2 2 2 2 2 2
7 7 6 5 4 1 2 3 4 5 8 9 11 11 11 10 10 11 11 10 10 10 10 10 9 9 9 8 8 8 7 6 6 5 5 5 5 5 4 3 2 2 1 1 1 2 1 2 2
9 8 7 6 5 2 1 3 4 6 8 9 11 11 11 10 10 11 11 10 10 10 10 9 9 9 9 8 8 8 7 7 6 6 6 6 6 5 5 4 3 3 2 1 2 1 1 1 2
10 9 8 7 6 2 2 3 4 7 8 9 11 12 11 10 10 10 10 10 10 9 9 9 9 9 9 8 8 8 7 7 6 5 5 5 5 5 5 4 4 3 2 2 3 3 2 1 1
11 10 10 8 7 4 1 4 7 8 10 10 11 12 11 10 9 9 10 10 10 9 10 9 9 8 8 9 8 7 7 7 6 5 5 5 5 4 4 4 4 3 2 3 2 2 2 2 2
11 11 11 10 8 7 5 5 8 10 10 9 10 12 11 9 9 9 10 10 10 9 9 9 8 8 8 8 8 7 7 6 6 6 5 5 4 4 4 4 4 3 3 2 2 1 1 2 2
13 12 11 11 10 8 7 6 8 9 9 9 11 12 12 9 9 9 9 10 10 9 9 9 8 8 8 8 8 8 7 6 6 6 5 4 4 4 4 4 3 3 3 2 2 2 2 2 2
14 13 12 12 12 10 8 7 9 9 9 10 11 11 11 10 9 9 9 9 9 9 9 9 8 8 8 8 8 8 7 7 7 6 5 5 4 4 4 4 3 4 3 3 3 3 3 3 3
13 13 13 13 13 13 10 9 10 9 9 11 11 12 11 11 10 9 9 9 9 9 8 8 8 8 8 7 7 8 8 8 7 6 5 5 5 4 4 4 4 4 3 3 3 3 3 3 3
14 14 15 15 14 14 13 12 11 10 10 12 12 12 12 12 10 10 9 9 9 8 8 8 8 7 7 7 7 8 8 7 6 6 5 5 5 4 4 4 4 4 4 4 3 3 4 3 3
16 15 16 16 16 15 14 13 12 12 12 13 12 12 12 13 11 10 9 9 9 8 7 7 7 6 7 7 7 8 8 7 7 6 5 6 5 5 5 5 4 4 4 4 4 4 4 4 4
16 16 17 16 16 15 15 15 14 14 13 13 13 13 12 13 11 10 9 9 8 8 8 7 6 6 6 7 7 7 8 8 7 7 6 6 6 6 6 5 5 5 5 5 5 5 5 5 5
16 17 17 17 16 16 15 15 16 15 14 13 14 13 12 12 12 11 10 9 8 8 8 7 6 6 6 7 7 7 7 8 8 7 7 6 6 6 7 6 6 6 6 5 5 5 5 5 5
18 17 15 15 16 16 15 15 15 13 14 13 14 12 10 10 11 11 10 8 8 8 7 7 6 6 6 6 7 7 8 8 8 8 8 7 7 6 7 6 6 5 5 5 5 5 5 5 6
17 16 14 13 14 14 15 15 13 14 14 13 13 12 11 10 10 10 9 9 9 9 8 7 6 6 6 6 7 7 8 8 9 8 8 8 8 7 7 6 6 5 5 5 5 5 5 5 6
17 16 14 13 12 14 14 13 12 13 14 13 12 12 11 11 11 11 10 10 10 9 8 7 6 6 6 7 8 8 8 8 8 8 9 8 9 8 7 7 6 5 5 5 6 6 5 6 6
17 16 15 14 13 14 15 14 14 15 15 15 14 12 11 11 11 11 11 10 10 10 8 8 7 6 6 7 8 8 8 8 9 9 9 8 8 8 8 8 6 5 6 6 6 6 6 6 7
19 18 16 15 14 14 15 15 16 17 16 16 15 13 12 11 12 12 11 11 11 11 10 9 9 8 8 8 9 9 9 8 9 9 9 8 8 9 8 8 7 6 6 6 7 7 7 7 7
19 18 16 15 15 16 17 16 17 18 17 16 15 15 14 13 13 12 12 11 11 11 10 9 9 9 9 9 9 9 9 9 9 9 9 9 8 9 9 9 7 7 7 7 8 8 7 7 7
19 18 17 17 18 19 18 18 17 18 18 17 17 17 17 16 14 13 12 12 12 11 11 10 10 10 10 10 10 9 9 8 9 9 9 9 8 9 10 9 9 8 8 8 8 8 8 9 8
19 17 17 18 20 20 20 20 18 17 17 17 17 18 19 18 17 15 13 13 12 11 11 11 11 11 11 10 10 10 9 9 9 10 10 10 10 10 10 10 10 9 9 9 9 9 9 8 8
20 19 19 20 21 21 20 21 18 18 18 17 18 19 20 19 17 15 14 13 13 12 12 12 12 11 11 11 10 10 9 9 10 10 10 10 10 10 10 11 11 10 10 10 10 10 10 9 9
21 21 20 21 22 22 21 22 20 18 18 17 18 18 19 18 18 17 15 15 14 14 13 13 13 12 11 11 11 11 10 10 10 10 10 10 10 11 11 11 11 10 10 10 10 11 11 10 10
22 22 22 23 24 22 20 23 20 17 19 19 19 19 19 19 19 18 16 15 15 15 14 14 13 13 12 12 12 11 11 11 11 11 11 10 11 11 11 10 10 10 10 10 10 11 11 11 10
22 22 23 24 24 22 21 23 20 18 19 21 21 20 21 20 19 18 17 16 14 14 15 15 14 13 13 12 12 12 12 11 11 11 11 11 11 12 11 10 11 10 10 10 11 11 11 12 11
22 23 22 24 24 24 23 22 20 19 19 21 21 21 21 20 18 18 18 17 16 16 16 16 15 15 14 13 13 13 13 12 11 11 12 11 11 11 11 11 11 11 10 10 11 11 12 12 12
22 22 23 24 25 25 24 23 22 20 20 20 21 21 21 20 20 19 19 18 18 17 17 17 17 16 15 14 14 14 13 12 12 12 12 12 12 12 11 12 12 11 11 11 11 12 12 12 12
23 24 25 26 27 27 26 25 23 22 21 20 20 21 21 21 20 20 20 20 21 20 19 18 18 18 17 16 15 15 14 14 13 13 13 13 13 12 13 13 12 12 12 12 12 12 13 13 13
24 25 26 27 28 28 28 26 23 23 23 23 22 21 22 23 21 21 21 21 21 21 20 20 19 19 18 17 17 17 16 15 15 15 14 14 14 14 14 14 13 13 13 13 13 13 14 14 14
Wind_Direction
179 177 168 149 130 96 51 35 26 9 359 356 0 6 6 4 3 6 7 7 9 16 17 17 16 13 11 8 5 1 0 2 2 1 356 347 343 337 322 315 303 275 255 231 212 204 222 225 228
190 190 183 170 155 103 45 22 5 358 357 357 359 356 358 356 359 3 5 6 9 13 16 16 13 11 9 8 4 360 357 356 355 356 352 348 342 341 336 328 318 313 253 218 187 190 203 189 186
198 198 197 195 181 152 50 13 348 351 354 355 356 349 347 354 358 359 3 4 8 10 12 12 9 6 3 3 3 2 358 355 354 352 351 348 343 339 341 337 335 345 350 286 215 196 198 202 196
205 204 208 206 198 219 8 3 343 336 340 341 344 343 342 353 358 358 1 3 5 6 8 7 4 359 359 360 358 356 355 350 349 347 345 346 342 337 338 332 325 325 319 307 283 228 208 217 216
212 211 216 204 207 242 335 347 333 325 328 332 334 333 338 350 356 354 356 359 360 1 5 6 4 358 356 357 355 354 353 351 349 341 340 341 337 334 335 331 326 324 323 315 299 277 258 258 243
217 216 218 212 214 220 258 313 304 305 316 320 323 326 331 344 350 351 351 354 355 356 360 1 1 357 353 351 352 351 350 351 349 342 338 339 339 338 337 334 332 327 316 305 305 294 274 261 250
216 216 221 222 234 229 232 274 294 305 308 312 315 321 325 336 344 348 350 351 351 351 356 1 359 356 354 352 351 351 351 351 347 341 334 331 328 329 332 327 328 328 318 311 304 283 250 226 231
216 218 222 223 231 231 238 260 282 291 300 305 310 317 324 332 339 344 345 347 345 345 349 355 355 351 351 350 353 355 354 354 352 347 340 335 327 325 327 328 326 322 320 308 297 289 266 263 270
218 217 218 223 231 235 245 259 277 283 288 295 303 312 320 327 333 339 341 341 341 342 346 350 353 353 351 354 356 357 356 356 353 349 346 344 334 325 326 327 326 326 316 299 285 280 281 282 283
221 220 216 225 235 240 245 258 271 273 282 295 303 310 315 319 325 330 333 336 338 340 340 345 352 355 355 360 359 359 357 356 356 353 345 342 340 332 329 327 323 324 318 308 295 283 276 282 282
220 220 220 227 238 247 250 256 269 274 278 291 300 304 309 313 317 318 322 329 334 337 337 339 347 350 354 359 357 355 353 355 353 347 338 334 335 328 324 329 326 318 307 298 292 287 286 286 292
223 225 224 227 239 250 257 264 269 271 272 284 294 298 302 307 304 311 315 323 329 331 333 334 341 346 349 352 351 353 354 352 352 352 340 331 329 327 323 316 309 306 301 299 297 293 300 304 302
226 228 230 232 241 249 257 263 267 268 268 278 285 292 300 304 308 309 308 317 322 327 330 334 335 344 346 347 351 352 349 349 355 354 351 338 334 333 330 316 304 296 290 294 292 293 300 303 303
227 228 229 233 237 242 248 256 262 263 264 270 279 288 298 305 309 306 307 311 317 321 320 329 332 344 351 354 355 351 347 345 349 351 347 340 335 330 327 321 305 291 283 278 282 290 296 299 300
228 229 232 237 240 245 251 258 261 264 267 270 277 287 296 300 302 302 307 312 310 311 315 321 326 339 348 353 351 347 344 344 347 346 343 337 330 323 321 321 313 296 281 277 281 285 289 292 298
229 232 234 236 242 249 255 258 263 262 267 271 279 285 292 298 299 298 301 304 303 303 305 310 312 323 336 342 341 339 339 340 339 337 334 330 330 328 322 319 316 300 283 280 285 284 286 286 291
229 232 233 232 241 250 257 259 261 266 268 272 277 286 290 292 291 291 292 295 299 301 301 300 309 316 326 332 332 333 330 332 333 333 331 328 329 329 323 317 311 302 288 282 282 283 287 287 287
227 229 231 234 237 246 256 262 265 268 268 271 276 279 282 285 288 290 289 291 294 296 295 296 296 303 317 323 325 328 326 324 325 325 327 329 327 326 324 318 307 298 288 283 282 284 284 284 285
229 232 234 234 238 247 256 259 261 262 263 270 274 273 277 282 285 289 290 288 290 290 289 293 293 294 300 309 317 320 323 321 321 321 322 325 326 326 321 317 313 305 296 290 288 289 285 282 278
230 235 238 239 241 245 250 257 257 258 260 266 271 275 278 282 284 285 288 289 287 287 287 286 288 290 293 301 306 310 313 315 316 314 316 320 321 322 319 313 309 302 295 290 287 286 287 281 277
230 235 239 243 243 247 251 253 255 256 259 264 266 271 276 278 278 282 285 287 284 278 280 280 281 285 289 294 298 303 307 307 309 312 313 315 315 316 317 311 304 301 293 286 286 282 287 283 275
236 239 242 246 248 248 249 255 255 256 261 268 270 270 273 275 275 276 279 283 281 277 275 278 279 280 283 288 295 297 301 301 303 304 306 306 305 307 311 311 305 296 290 286 284 281 282 281 275
241 243 244 246 247 248 249 256 257 258 261 266 270 270 271 269 269 273 277 279 277 275 274 274 275 276 278 282 289 293 296 296 298 301 304 304 303 303 305 306 303 295 291 286 281 279 278 277 276
242 244 246 248 247 247 248 255 256 259 263 264 268 269 270 266 268 270 272 274 272 272 273 274 274 274 276 278 284 287 288 290 292 296 301 302 302 307 307 303 298 294 291 286 281 278 275 276 276
243 244 245 246 245 247 247 251 256 256 259 262 264 268 271 268 264 263 263 266 265 268 271 272 274 275 276 277 280 282 282 284 286 292 296 296 298 305 304 304 299 297 290 283 280 279 276 273 273
246 246 249 251 251 250 248 250 254 251 254 255 258 262 264 267 267 263 263 260 262 269 273 271 274 279 279 275 276 277 278 280 282 288 292 296 301 303 296 295 295 293 291 283 279 277 277 274 271
245 247 251 253 252 253 250 252 252 250 253 254 256 259 262 262 264 264 261 256 260 267 273 273 274 274 274 270 271 273 273 275 277 282 286 290 294 300 299 292 292 291 290 288 283 278 278 273 269
244 244 247 251 252 254 254 255 255 252 254 255 257 261 264 261 263 262 262 261 261 265 269 270 270 269 269 270 270 268 268 271 275 278 281 284 289 295 299 297 291 290 288 288 283 279 277 275 271
243 242 246 250 252 255 257 255 255 255 253 258 261 263 260 263 268 267 264 264 263 264 264 264 266 268 267 266 266 264 264 267 272 273 278 283 288 291 295 296 293 289 288 287 286 283 280 278 274
244 244 246 249 250 253 257 255 252 255 254 255 258 261 262 263 265 266 264 266 264 263 262 262 263 265 266 265 264 263 259 263 268 270 272 277 281 285 289 291 289 287 287 287 284 283 278 276 276
Height
5915 5916 5916 5917 5917 5916 5915 5915 5914 5913 5913 5912 5911 5911 5910 5909 5908 5908 5905 5902 5899 5898 5897 5896 5894 5893 5892 5891 5890 5889 5888 5887 5886 5886 5885 5884 5883 5882 5882 5881 5880 5880 5879 5879 5879 5879 5879 5879 5879
5914 5915 5916 5916 5916 5915 5915 5914 5914 5914 5913 5912 5912 5911 5910 5909 5907 5905 5904 5902 5900 5898 5897 5896 5895 5894 5893 5892 5890 5889 5888 5887 5887 5886 5885 5884 5883 5882 5882 5881 5880 5879 5879 5879 5879 5879 5879 5879 5879
5913 5914 5915 5915 5915 5915 5914 5914 5913 5913 5913 5913 5912 5912 5911 5909 5907 5905 5904 5902 5900 5899 5898 5897 5896 5894 5893 5892 5891 5890 5888 5887 5887 5886 5885 5884 5883 5882 5882 5881 5880 5879 5879 5879 5879 5879 5879 5878 5879
5913 5914 5914 5914 5913 5914 5913 5913 5913 5913 5913 5913 5912 5911 5910 5909 5907 5905 5903 5902 5900 5899 5898 5897 5896 5895 5893 5892 5891 5890 5889 5887 5887 5886 5885 5884 5883 5882 5882 5881 5880 5880 5880 5879 5879 5879 5878 5878 5878
5911 5912 5913 5913 5912 5912 5912 5912 5913 5913 5913 5913 5912 5911 5910 5909 5907 5905 5903 5902 5901 5900 5898 5897 5896 5895 5893 5892 5891 5890 5889 5887 5886 5886 5885 5884 5883 5882 5882 5881 5880 5880 5879 5879 5879 5879 5878 5878 5878
5910 5911 5912 5911 5911 5911 5911 5911 5912 5912 5912 5912 5911 5910 5909 5908 5907 5905 5903 5902 5901 5900 5898 5897 5896 5895 5894 5892 5891 5890 5888 5887 5886 5885 5884 5884 5883 5882 5881 5881 5880 5880 5879 5879 5879 5878 5878 5878 5878
5909 5909 5910 5910 5910 5911 5911 5910 5910 5911 5911 5911 5910 5909 5908 5907 5906 5905 5903 5902 5901 5899 5898 5897 5896 5895 5893 5892 5891 5889 5888 5887 5886 5885 5884 5883 5882 5882 5881 5881 5880 5879 5879 5878 5878 5878 5878 5877 5877
5906 5908 5909 5909 5909 5909 5910 5909 5909 5909 5909 5909 5909 5908 5907 5907 5905 5904 5903 5902 5901 5899 5898 5897 5895 5894 5893 5892 5891 5889 5888 5887 5886 5885 5884 5883 5882 5881 5881 5880 5880 5879 5878 5878 5878 5878 5877 5877 5877
5904 5907 5907 5908 5908 5907 5908 5908 5908 5908 5908 5908 5908 5907 5906 5905 5905 5904 5902 5902 5900 5899 5898 5896 5895 5894 5892 5891 5890 5889 5888 5887 5885 5884 5883 5883 5882 5881 5880 5880 5879 5878 5878 5877 5877 5877 5877 5877 5876
5903 5905 5906 5906 5906 5905 5906 5906 5906 5906 5906 5906 5906 5906 5905 5905 5904 5903 5902 5901 5900 5899 5897 5896 5894 5893 5892 5891 5890 5889 5888 5886 5885 5884 5883 5882 5882 5881 5880 5879 5879 5878 5877 5877 5876 5876 5876 5876 5876
5901 5902 5902 5903 5903 5903 5903 5904 5904 5905 5904 5905 5905 5905 5904 5903 5903 5902 5902 5901 5899 5898 5897 5895 5894 5893 5892 5891 5890 5888 5887 5886 5885 5884 5883 5882 5881 5880 5879 5879 5878 5877 5877 5876 5876 5875 5875 5875 5874
5898 5899 5899 5900 5900 5901 5901 5902 5902 5903 5904 5903 5903 5903 5903 5902 5901 5901 5900 5899 5898 5897 5896 5895 5893 5892 5891 5890 5889 5888 5887 5885 5884 5883 5882 5881 5880 5879 5879 5878 5877 5876 5875 5875 5875 5874 5874 5873 5873
5895 5896 5897 5898 5899 5899 5899 5900 5900 5901 5901 5901 5901 5901 5901 5900 5900 5899 5899 5898 5897 5896 5895 5894 5892 5892 5891 5890 5889 5887 5886 5885 5884 5883 5882 5881 5880 5879 5878 5877 5876 5875 5874 5874 5874 5873 5873 5873 5872
5892 5893 5894 5895 5896 5897 5897 5898 5898 5898 5898 5898 5899 5899 5899 5899 5898 5897 5896 5896 5895 5895 5893 5892 5891 5891 5890 5889 5888 5887 5886 5884 5883 5882 5881 5880 5879 5878 5877 5876 5875 5874 5873 5873 5873 5873 5872 5872 5871
5889 5891 5892 5893 5893 5894 5895 5895 5895 5895 5895 5896 5896 5897 5897 5897 5896 5895 5895 5894 5894 5893 5892 5891 5889 5889 5889 5888 5887 5886 5885 5884 5882 5881 5880 5879 5878 5877 5876 5875 5873 5872 5872 5872 5871 5871 5871 5871 5870
5886 5888 5889 5890 5890 5891 5893 5892 5892 5892 5893 5893 5893 5894 5895 5894 5894 5894 5893 5892 5892 5891 5891 5890 5888 5888 5887 5887 5886 5885 5884 5882 5881 5880 5879 5877 5876 5875 5874 5873 5872 5871 5870 5870 5870 5870 5870 5869 5869
5883 5884 5885 5887 5888 5888 5889 5889 5890 5889 5890 5890 5891 5892 5892 5892 5892 5892 5891 5890 5890 5889 5888 5888 5887 5886 5886 5885 5884 5883 5882 5881 5880 5879 5877 5876 5875 5874 5873 5872 5871 5870 5869 5869 5869 5869 5868 5868 5868
5880 5881 5882 5883 5884 5884 5884 5886 5887 5887 5887 5887 5888 5889 5890 5890 5890 5890 5889 5888 5887 5887 5887 5885 5885 5884 5884 5883 5882 5882 5880 5879 5878 5877 5876 5875 5874 5872 5871 5870 5869 5869 5868 5868 5867 5867 5867 5866 5866
5876 5877 5879 5880 5880 5880 5881 5882 5883 5883 5883 5884 5885 5885 5886 5887 5887 5887 5886 5885 5884 5884 5884 5883 5883 5882 5882 5881 5880 5879 5878 5877 5876 5875 5874 5873 5872 5871 5870 5869 5868 5867 5867 5866 5866 5865 5865 5865 5864
5872 5873 5875 5877 5877 5877 5877 5878 5879 5879 5879 5881 5881 5882 5883 5883 5883 5884 5883 5882 5882 5881 5881 5881 5881 5880 5879 5878 5878 5877 5876 5874 5873 5872 5871 5871 5870 5869 5868 5867 5866 5866 5865 5865 5864 5863 5863 5863 5862
5868 5870 5871 5872 5873 5873 5873 5874 5875 5875 5875 5877 5878 5879 5880 5880 5880 5880 5880 5879 5879 5878 5878 5878 5878 5877 5876 5875 5875 5874 5873 5872 5871 5870 5869 5869 5868 5867 5866 5865 5864 5864 5863 5863 5862 5861 5861 5861 5860
5864 5866 5867 5868 5869 5869 5870 5869 5871 5871 5871 5872 5873 5874 5875 5876 5877 5877 5876 5876 5876 5875 5875 5875 5875 5874 5873 5872 5872 5871 5870 5869 5869 5868 5867 5866 5865 5865 5864 5863 5862 5861 5861 5860 5860 5859 5859 5859 5858
5859 5861 5862 5863 5864 5865 5866 5865 5867 5867 5868 5869 5869 5870 5870 5871 5872 5873 5873 5872 5872 5872 5872 5872 5872 5871 5870 5869 5868 5868 5867 5867 5866 5865 5864 5864 5863 5862 5861 5860 5860 5859 5858 5858 5857 5857 5857 5856 5856
5854 5856 5857 5858 5859 5860 5861 5861 5862 5863 5864 5865 5865 5865 5865 5866 5868 5868 5868 5869 5869 5868 5868 5868 5868 5867 5867 5866 5865 5865 5864 5864 5863 5862 5861 5861 5860 5859 5859 5857 5857 5856 5855 5855 5854 5854 5854 5854 5854
5849 5851 5852 5852 5853 5854 5856 5855 5857 5859 5859 5860 5860 5860 5861 5862 5863 5863 5863 5864 5864 5864 5864 5864 5863 5863 5863 5862 5862 5861 5861 5860 5860 5859 5858 5857 5857 5856 5856 5855 5854 5853 5853 5852 5852 5851 5851 5851 5851
5844 5845 5847 5848 5848 5850 5851 5850 5853 5854 5854 5854 5855 5855 5856 5856 5857 5858 5859 5860 5860 5860 5859 5859 5858 5859 5859 5859 5858 5857 5857 5857 5856 5856 5855 5854 5854 5853 5852 5852 5851 5850 5850 5849 5849 5848 5848 5848 5848
5838 5840 5842 5843 5843 5843 5844 5846 5848 5849 5848 5849 5849 5850 5850 5850 5851 5852 5854 5855 5855 5855 5855 5855 5855 5855 5854 5854 5854 5854 5853 5853 5852 5852 5851 5851 5851 5850 5849 5849 5848 5848 5847 5846 5846 5845 5845 5844 5844
5833 5835 5836 5836 5836 5836 5838 5840 5842 5843 5843 5843 5843 5844 5845 5846 5847 5847 5848 5850 5850 5850 5851 5851 5851 5850 5850 5850 5850 5849 5849 5849 5849 5848 5847 5847 5847 5847 5846 5845 5845 5845 5844 5843 5843 5842 5841 5841 5841
5828 5829 5829 5830 5830 5831 5832 5836 5837 5837 5838 5838 5838 5838 5839 5840 5841 5842 5843 5844 5845 5846 5845 5846 5846 5846 5846 5845 5845 5845 5845 5845 5845 5844 5844 5844 5843 5843 5842 5842 5841 5841 5840 5840 5839 5838 5837 5837 5837
5822 5823 5823 5824 5825 5825 5826 5831 5830 5831 5831 5832 5833 5833 5834 5835 5835 5836 5837 5838 5839 5840 5840 5840 5840 5841 5841 5840 5841 5840 5839 5840 5840 5840 5840 5840 5840 5839 5839 5838 5837 5837 5836 5836 5835 5834 5833 5833 5833